This demonstration page uses our WeatherBlox Daily Observations layout. Learn more.

Left ArrowRight Arrow

39.51506, -84.39828

Hourly Observations for May 26, 2019

Temp ( °F °C ) Dew Point ( °F °C ) Humidity (%) Winds ( mph kmh ) Pressure ( in mb ) Visibility ( mi km ) Precip ( " mm )
12:15 am 00:15 Mostly Cloudy with Mist and Fog 67 19.4 67 19.2 99 99 Calm 30.03 1017 1 1 0.00 0.00
12:35 am 00:35 Clear with Mist and Fog 66 19.1 66 19 99 99 Calm 30.04 1017 4 6 0.00 0.00
12:55 am 00:55 Clear with Mist and Fog 66 19 66 18.9 99 99 Calm 30.04 1017 4 6 0.00 0.00
1:15 am 01:15 Clear with Mist and Fog 66 19.1 66 19 99 99 Calm 30.04 1017 2 3 0.00 0.00
1:35 am 01:35 Mostly Cloudy with Fog 66 19 66 18.9 99 99 Calm 30.03 1017 1 1 0.00 0.00
1:55 am 01:55 Mostly Cloudy with Mist and Fog 65 18.6 65 18.5 99 99 Calm 30.03 1017 2 2 0.00 0.00
2:15 am 02:15 Mostly Cloudy with Mist and Fog 67 19.3 67 19.2 99 99 Calm 30.04 1017 1 2 0.00 0.00
2:35 am 02:35 Mostly Cloudy with Fog 65 18.5 65 18.4 99 99 Calm 30.04 1017 1 1 0.00 0.00
2:55 am 02:55 Mostly Cloudy with Mist and Fog 64 18 64 17.8 99 99 Calm 30.03 1017 1 2 0.00 0.00
3:15 am 03:15 Mostly Cloudy with Mist and Fog 65 18.4 65 18.3 99 99 W 3 6 30.03 1017 1 1 0.00 0.00
3:35 am 03:35 Mostly Cloudy with Fog 66 18.7 65 18.6 99 99 Calm 30.03 1017 1 1 0.00 0.00
3:55 am 03:55 Mostly Cloudy with Mist and Fog 65 18.6 65 18.5 99 99 Calm 30.02 1017 2 3 0.00 0.00
4:15 am 04:15 Mostly Cloudy with Mist and Fog 64 17.9 64 17.9 100 100 W 3 6 30.02 1017 1 1 0.00 0.00
4:35 am 04:35 Mostly Cloudy with Mist and Fog 65 18.1 65 18.1 100 100 W 3 6 30.03 1017 2 2 0.00 0.00
4:55 am 04:55 Mostly Cloudy with Fog 66 18.9 66 18.8 99 99 WSW 3 6 30.02 1016 1 1 0.00 0.00
5:15 am 05:15 Mostly Cloudy with Mist and Fog 64 17.6 64 17.5 99 99 WSW 3 6 30.03 1017 1 1 0.00 0.00
5:35 am 05:35 Partly Cloudy with Mist and Fog 65 18.3 65 18.3 100 100 SW 5 7 30.03 1017 4 6 0.00 0.00
5:55 am 05:55 Clear with Mist and Fog 66 19.1 66 19 99 99 SW 3 6 30.03 1017 7 11 0.00 0.00
6:15 am 06:15 Clear with Mist and Fog 67 19.5 67 19.4 99 99 WSW 6 9 30.04 1017 5 8 0.00 0.00
6:35 am 06:35 Mostly Cloudy with Mist and Fog 67 19.6 67 19.4 99 99 WSW 6 9 30.04 1017 5 8 0.00 0.00
6:55 am 06:55 Cloudy with Mist and Fog 67 19.5 67 19.3 99 99 Calm 30.05 1017 5 8 0.00 0.00
7:15 am 07:15 Cloudy with Mist and Fog 68 19.9 67 19.6 98 98 NNW 3 6 30.06 1018 5 8 0.00 0.00
7:35 am 07:35 Cloudy with Light Rain 70 21.3 67 19.5 90 90 N 13 20 30.06 1018 10 16 0.00 0.00
7:55 am 07:55 Partly Cloudy 69 20.6 64 17.9 85 85 ENE 3 6 30.07 1018 10 16 0.00 0.00
8:15 am 08:15 Sunny 70 21.1 66 18.7 86 86 E 3 6 30.06 1018 10 16 0.00 0.00
8:35 am 08:35 Sunny 71 21.7 65 18.5 82 82 Calm 30.07 1018 10 16 0.00 0.00
8:55 am 08:55 Sunny 71 21.7 66 18.7 83 83 SSE 3 6 30.06 1018 10 16 0.00 0.00
9:15 am 09:15 Sunny 72 22.4 65 18.4 78 78 SSE 6 9 30.06 1018 10 16 0.00 0.00
9:35 am 09:35 Sunny 74 23.2 66 18.7 76 76 ESE 5 7 30.06 1018 10 16 0.00 0.00
9:55 am 09:55 Sunny 75 23.9 65 18.4 71 71 ESE 6 9 30.05 1017 10 16 0.00 0.00
10:15 am 10:15 Sunny 76 24.7 66 19.1 71 71 Calm 30.04 1017 10 16 0.00 0.00
10:35 am 10:35 Sunny 77 24.9 67 19.6 72 72 NNE 5 7 30.04 1017 10 16 0.00 0.00
10:55 am 10:55 Sunny 78 25.4 67 19.7 71 71 Calm 30.04 1017 10 16 0.00 0.00
11:15 am 11:15 Sunny 79 26.3 69 20.8 72 72 Calm 30.03 1017 10 16 0.00 0.00
11:35 am 11:35 Sunny 79 26.3 68 20.1 69 69 Calm 30.03 1017 10 16 0.00 0.00
11:55 am 11:55 Sunny 80 26.9 67 19.4 64 64 Calm 30.03 1017 10 16 0.00 0.00
12:15 pm 12:15 Sunny 80 26.8 67 19.6 65 65 Calm 30.03 1017 10 16 0.00 0.00
12:35 pm 12:35 Sunny 82 27.7 66 18.9 59 59 Calm 30.03 1017 10 16 0.00 0.00
12:55 pm 12:55 Sunny 82 27.8 67 19.4 60 60 Calm 30.02 1016 10 16 0.00 0.00
1:15 pm 13:15 Sunny 83 28.5 68 19.9 60 60 NNW 5 7 30.01 1016 10 16 0.00 0.00
1:35 pm 13:35 Hazy 84 28.9 68 19.8 58 58 SSW 5 7 30.00 1016 7 11 0.00 0.00
1:55 pm 13:55 Partly Cloudy 84 28.9 69 20.6 61 61 SW 3 6 29.99 1016 10 16 0.00 0.00
2:15 pm 14:15 Sunny 86 29.8 65 18.2 50 50 W 7 11 29.98 1015 10 16 0.00 0.00
2:35 pm 14:35 Sunny 85 29.5 65 18.6 52 52 W 7 11 29.97 1015 10 16 0.00 0.00
2:55 pm 14:55 Sunny 84 29 65 18.1 52 52 W 12 19 29.97 1015 10 16 0.00 0.00
3:15 pm 15:15 Partly Cloudy 81 27.2 65 18.4 59 59 SW 14 22 29.98 1015 10 16 0.00 0.00
3:35 pm 15:35 Sunny 83 28.4 67 19.7 59 59 SW 8 13 29.97 1015 10 16 0.00 0.00
3:55 pm 15:55 Sunny 83 28.3 68 20.2 62 62 SW 8 13 29.96 1014 10 16 0.00 0.00
4:15 pm 16:15 Sunny 84 28.8 69 20.3 60 60 SW 8 13 29.96 1015 10 16 0.00 0.00
4:35 pm 16:35 Sunny 83 28.6 67 19.5 58 58 W 9 15 29.96 1014 10 16 0.00 0.00
4:55 pm 16:55 Partly Cloudy 81 27.2 67 19.3 62 62 N 10 17 29.97 1015 10 16 0.00 0.00
5:15 pm 17:15 Partly Cloudy 82 27.8 67 19.4 60 60 NNE 9 15 29.96 1014 10 16 0.00 0.00
5:35 pm 17:35 Sunny 83 28.4 67 19.6 59 59 N 5 7 29.97 1015 10 16 0.00 0.00
5:55 pm 17:55 Partly Cloudy 83 28.4 68 19.8 60 60 NNW 3 6 29.97 1015 10 16 0.00 0.00
6:15 pm 18:15 Cloudy 77 25 65 18.5 67 67 SSW 12 19 29.97 1015 10 16 0.00 0.00
6:35 pm 18:35 Cloudy 77 24.9 66 18.7 69 69 S 12 19 29.97 1015 10 16 0.00 0.00
6:55 pm 18:55 Cloudy with Rain 72 22.3 69 20.6 90 90 S 5 7 29.99 1016 7 11 0.03 0.76
7:15 pm 19:15 Cloudy with Rain 71 21.7 69 20.4 92 92 SSE 5 7 29.99 1016 4 6 0.24 6.10
7:35 pm 19:35 Cloudy 71 21.8 69 20.5 92 92 SSW 8 13 29.99 1016 10 16 0.24 6.10
7:55 pm 19:55 Cloudy with Light Rain 71 21.9 69 20.3 91 91 SW 5 7 30.00 1016 7 11 0.27 6.86
8:15 pm 20:15 Cloudy 71 21.7 69 20.3 92 92 WSW 5 7 30.00 1016 10 16 0.00 0.00
8:35 pm 20:35 Partly Cloudy 71 21.6 69 20.4 93 93 Calm 30.00 1016 10 16 0.00 0.00
8:55 pm 20:55 Mostly Cloudy 70 21.3 69 20.4 95 95 Calm 30.00 1016 10 16 0.00 0.00
9:15 pm 21:15 Mostly Cloudy 70 21 69 20.5 97 97 Calm 30.00 1016 10 16 0.00 0.00
9:35 pm 21:35 Partly Cloudy 70 21.1 69 20.7 98 98 Calm 30.01 1016 10 16 0.00 0.00
9:55 pm 21:55 Mostly Cloudy 69 20.8 67 19.5 92 92 N 3 6 30.02 1017 10 16 0.00 0.00
10:15 pm 22:15 Partly Cloudy 69 20.3 67 19.5 95 95 NNE 3 6 30.02 1017 10 16 0.00 0.00
10:35 pm 22:35 Partly Cloudy 67 19.4 66 18.9 97 97 NNE 3 6 30.03 1017 7 11 0.00 0.00
10:55 pm 22:55 Mostly Cloudy 66 19.1 65 18.6 97 97 Calm 30.04 1017 10 16 0.00 0.00
11:15 pm 23:15 Cloudy 67 19.2 66 18.8 98 98 Calm 30.04 1017 10 16 0.00 0.00
11:35 pm 23:35 Mostly Cloudy 67 19.3 66 18.9 98 98 Calm 30.05 1017 10 16 0.00 0.00
11:55 pm 23:55 Clear 66 18.9 65 18.6 98 98 Calm 30.05 1018 10 16 0.00 0.00

Powered by AerisWeather